Regional Weather Roundup
Issued by NWS

Home | Current Version | Previous Version | Graphics & Text | Print | Product List | Glossary On
Versions: 1 2 3 4 5 6 7 8 9 10 11 12 13 14 15 16 17 18 19 20 21 22 23 24 25 26 27 28 29 30 31 32 33 34 35 36 37 38 39 40 41 42 43 44 45 46 47 48 49 50
000
ASUS43 KLMK 280002
RWRKY
KENTUCKY REGIONAL WEATHER ROUNDUP
NATIONAL WEATHER SERVICE LOUISVILLE KY
800 PM EDT THU AUG 27 2015

NOTE "FAIR" INDICATES FEW OR NO CLOUDS BELOW 12,000 FEET
WITH NO SIGNIFICANT WEATHER AND/OR OBSTRUCTIONS TO VISIBILITY.

KYZ001>023-026-027-061>063-070>075-280100-
WESTERN AND SOUTH CENTRAL KENTUCKY

CITY           SKY/WX    TMP DP  RH WIND       PRES   REMARKS
PADUCAH        CLEAR     76  58  53 NE6       30.07F
HENDERSON      CLEAR     73  63  68 CALM      30.08S
OWENSBORO      CLEAR     76  60  57 E6        30.09F
HOPKINSVILLE   CLEAR     74  59  59 NE7       30.07F
BOWLING GREEN  CLEAR     76  55  48 NE9       30.09F
GLASGOW        PTCLDY    73  56  55 NE3       30.11S
$$

KYZ024-025-028>034-038-045-046-053-280100-
NORTH CENTRAL KENTUCKY

CITY           SKY/WX    TMP DP  RH WIND       PRES   REMARKS
LOUISVILLE/SDF PTCLDY    75  55  49 E9        30.11S
LOUISVILLE/LOU CLEAR     76  55  48 E6        30.12S
FORT KNOX      NOT AVBL
$$

KYZ035>037-039>044-047>052-055>060-089>105-280100-
NORTHEAST KENTUCKY

CITY           SKY/WX    TMP DP  RH WIND       PRES   REMARKS
LEXINGTON      PTCLDY    70  55  59 N8        30.15R
COVINGTON      PTCLDY    73  53  49 NE3       30.14S
FRANKFORT      MOCLDY    73  56  54 N3        30.13S
$$

KYZ054-064>069-076>088-106>120-280100-
SOUTHEAST KENTUCKY

CITY           SKY/WX    TMP DP  RH WIND       PRES   REMARKS
JACKSON        CLEAR     68  56  65 CALM      30.13F
LONDON         CLEAR     73  53  49 NE8       30.12R
SOMERSET       NOT AVBL
MIDDLESBORO    CLEAR     73  62  67 NW3       30.10S
MONTICELLO     CLEAR     70  61  73 N5        30.14R
$$




USA.gov is the U.S. government's official web portal to all federal, state and local government web resources and services.